Regional Weather Roundup
Issued by NWS

Home | Current Version | Previous Version | Graphics & Text | Print | Product List | Glossary On
Versions: 1 2 3 4 5 6 7 8 9 10 11 12 13 14 15 16 17 18 19 20 21 22 23 24 25 26 27 28 29 30 31 32 33 34 35 36 37 38 39 40 41 42 43 44 45 46 47 48 49 50
726
ASUS44 KJAN 212010
RWRMS

MISSISSIPPI HOURLY WEATHER ROUNDUP
NATIONAL WEATHER SERVICE JACKSON MS
300 PM CDT TUE OCT 21 2014

NOTE: "FAIR: INDICATES FEW OR NO CLOUDS BELOW 12,000 FEET WITH NO
SIGNIFICANT WEATHER AND/OR OBSTRUCTIONS TO VISIBILITY.

MSZ001>002-007>008-010>013-018>021-025>028-034>036-212100-
NORTHWEST MISSISSIPPI

CITY           SKY/WX    TMP DP  RH WIND       PRES   REMARKS
CLARKSDALE     FAIR      77  54  44 N7        30.05S
CLEVELAND      MOCLDY    79  59  50 NW3       30.02F
GREENWOOD      MOSUNNY   80  56  43 NW8       30.02F
GREENVILLE     MOSUNNY   80  56  43 NW5       30.02F
GRENADA          N/A    N/A N/A N/A MISG        N/A
OLIVE BRANCH   SUNNY     73  48  40 N8        30.05F
OXFORD         FAIR      75  46  35 N7        30.06S
TUNICA         CLEAR     77  45  31 N9        30.05F
$$

MSZ003>006-009-014>017-022>024-029>033-037>039-212100-
NORTHEAST MISSISSIPPI

CITY           SKY/WX    TMP DP  RH WIND       PRES   REMARKS
COLUMBUS AFB   SUNNY     78  54  43 N12       30.01F
CORINTH        FAIR      73  45  35 VRB7      30.03F
GOLDN TRIANGLE PTSUNNY   77  55  47 N9        30.01F
STARKVILLE     FAIR      77  54  44 N6        30.01F
TUPELO         SUNNY     76  47  35 N9        30.02F
$$

MSZ040-058-212100-
CENTRAL MISSISSIPPI

CITY           SKY/WX    TMP DP  RH WIND       PRES   REMARKS
JACKSON INTL   SUNNY     78  55  44 NE5       30.02F
JACKSON HAWKNS SUNNY     77  55  46 VRB6      30.03F
MERIDIAN KEY   SUNNY     78  54  43 N8        30.01F
MERIDIAN NAS   MOSUNNY   77  53  43 VRB5      30.01F
RAYMOND        FAIR      79  73  83 N5        30.03F
VICKSBURG      SUNNY     79  58  48 VRB7      30.03F
$$

MSZ059>079-212100-
SOUTH MISSISSIPPI

CITY           SKY/WX    TMP DP  RH WIND       PRES   REMARKS
BROOKHAVEN     FAIR      77  55  47 N7        30.04F
HATTIESBURG    SUNNY     80  52  37 N8        30.00F
MCCOMB         SUNNY     80  52  37 VRB5      30.01F
NATCHEZ        SUNNY     75  57  53 N6        30.03F
PINE BELT      SUNNY     81  54  39 N7        30.03F
$$

MSZ080>082-212100-
COASTAL MISSISSIPPI

CITY           SKY/WX    TMP DP  RH WIND       PRES   REMARKS
BAY ST LOUIS   SUNNY     81  50  34 N5        29.98F
BILOXI         SUNNY     80  54  39 VRB5      29.97F
PASCAGOULA     SUNNY     81  53  37 MISG      29.97F
GULFPORT       SUNNY     81  54  39 NE9       29.97F
$$



USA.gov is the U.S. government's official web portal to all federal, state and local government web resources and services.